Regional Weather Roundup
Issued by NWS Charleston, SC

Current Version | Previous Version | Graphics & Text | Print | Product List | Glossary On
Versions: 1 2 3 4 5 6 7 8 9 10 11 12 13 14 15 16 17 18 19 20 21 22 23 24 25 26 27 28 29 30 31 32 33 34 35 36 37 38 39 40 41 42 43 44 45 46 47 48 49 50
000 ASUS42 KCHS 172312 RWRCHS REGIONAL WEATHER ROUNDUP NATIONAL WEATHER SERVICE CHARLESTON SC 600 PM EST TUE JAN 17 2017 NOTE: "FAIR" INDICATES FEW OR NO CLOUDS BELOW 12,000 FEET WITH NO SIGNIFICANT WEATHER AND/OR OBSTRUCTIONS TO VISIBILITY. NOT ALL STATIONS ARE QUALITY CONTROLLED. USE DATA WITH CAUTION... ESPECIALLY DEWPOINT OBSERVATIONS. SCZ027-030-031-034>040-042>050-180000- ...SOUTHEAST SOUTH CAROLINA... CITY SKY/WX TMP DP RH WIND PRES REMARKS N CHARLESTON MOCLDY 66 57 72 S8 30.17S WATERFRONT PRK N/A 63 60 90 SW5 30.18R MOUNT PLEASANT LGT RAIN 66 61 82 S5 30.18S JOHNS ISLAND FAIR 63 61 94 S7 30.19S PINOPOLIS N/A 64 63 94 CALM 30.08S MONCKS CORNER FAIR 66 55 68 CALM 30.16F SUMMERVILLE FAIR 68 61 77 CALM 30.17F BEAUFORT MCAS CLOUDY 66 60 81 S7 30.18F BEAUFORT ARPT FAIR 63 59 88 S7 30.19S HILTON HEAD IS PTCLDY 63 59 88 S6 30.20S WALTERBORO PTCLDY 70 61 73 S3 30.18S ALLENDALE FAIR 72 57 60 CALM 30.16R ...SOUTHERN MIDLANDS AND PEE DEE... CITY SKY/WX TMP DP RH WIND PRES REMARKS GEORGETOWN FAIR 59 57 94 CALM 30.19R KINGSTREE FAIR 64 55 72 S3 30.15F ORANGEBURG CLOUDY 69 57 65 S7 30.15S BARNWELL FAIR 72 57 60 CALM 30.16S AIKEN FAIR 66 54 63 S6 30.18R MANNING FAIR 63 57 82 S3 30.15F COLUMBIA CLOUDY 70 55 59 S6 30.13S SUMTER PTCLDY 66 57 73 S6 30.12S FLORENCE CLOUDY 64 58 80 S6 30.15F MYRTLE BEACH PTCLDY 63 55 77 S7 30.19S N MYRTLE BEACH PTCLDY 59 56 89 S8 30.17S $$ GAZ063-065-086>088-099>101-113>116-118-119-134>141-150-180000- ...SOUTHEAST GEORGIA... CITY SKY/WX TMP DP RH WIND PRES REMARKS SAVANNAH ARPT MOCLDY 70 56 61 S5 30.19R HUNTER AAF CLEAR 67 61 80 S6 30.17R FORT STEWART CLEAR 69 60 73 CALM 30.17S STATESBORO PTCLDY 68 62 79 S3 30.18R SYLVANIA PTCLDY N/A N/A N/A CALM 30.18S CLAXTON FAIR N/A N/A N/A CALM 30.18S ...CSRA...CENTRAL AND FAR SOUTHEAST GEORGIA... CITY SKY/WX TMP DP RH WIND PRES REMARKS THOMSON CLEAR 73 59 62 SW3 30.20R AUGUSTA-BUSH PTCLDY 72 54 53 SW6 30.15R AUGUSTA-DANIEL PTCLDY 73 53 49 SW6 30.16R SWAINSBORO FAIR 72 57 60 S3 30.19R VIDALIA CLOUDY 72 61 68 SW3 30.19R EASTMAN FAIR 74 47 38 CALM 30.21R HAZLEHURST FAIR 71 60 68 CALM 30.18R ALMA CLEAR 69 60 73 SW3 30.19R WAYCROSS PTCLDY 74 62 65 SW6 30.20R JESUP FAIR 70 61 73 CALM 30.20R BAXLEY FAIR 70 64 83 CALM 30.19R BRUNSWICK PTCLDY 68 63 83 CALM 30.22R SAINT SIMONS CLEAR 63 60 90 SE6 30.21R $$ SCZ027-028-034-036>038-045-046-048>050-GAZ119-141-180000- ...LAKE AND SUPPLEMENTAL COASTAL OBSERVATIONS... STATION/POSITION TIME TEMP WIND PRES WAVE SWELL AIR SEA DIR/SP/G HT/PER HT/PER/DIR (UTC) (F) (DEG/KT/KT) (MB) (FT/S) (FT/S/D) WINYAH BAY NOT AVBL LAKE MURRAY 2220 69 220/ 7/ 8 1019.6 ACE BASIN NERRS 2145 69 CALM 1022.0 FORT PULASKI 2248 62 56 180/ 3/ 5 1022.7R SAPELO ISLAND 2200 68 130/ 4 1022.0 $$ ANZ835-935-AMZ111-154-330-350-352-354-370-450-454-472-180000- ...C-MAN AND BUOY OBSERVATIONS... STATION/POSITION TIME TEMP WIND PRES WAVE SWELL AIR SEA DIR/SP/G HT/PER HT/PER/DIR (UTC) (F) (DEG/KT/KT) (MB) (FT/S) (FT/S/D) BUOY 41004 2150 70 71 230/ 8/ 8 1022.1 2/ 8 2/130/ 8 BUOY 41008 2250 62 61 130/ 6/ 6 1022.9R 2/ 9 2/100/ 9 FOLLY BEACH CMAN 2200 59 220/ 4/ 5 1023.0R CAPERS NEARSHORE 2208 58 55 200/ 6/ 8 1022.0R FRIPP NEARSHORE 2208 60 57 150/ 6/ 6 1022.3R STATION/POSITION TIME TEMP WIND PRES WAVE SWELL AIR SEA DIR/SP/G HT/PER HT/PER/DIR (UTC) (F) (DEG/KT/KT) (MB) (FT/S) (FT/S/D) 5E ST. MARYS GA 2300 62 N/A 2/10 FRYING PAN BUOY 2250 70 72 230/ 10/ 12 1022.4R 2/ 8 2/110/ 8 BUOY 41025 2250 70 73 240/ 16/ 19 1020.8S 3/ 8 2/120/ 8 CAPE LOOKOUT NC 2200 63 220/ 8/ 9 1021.2R BUOY 41002 2250 72 71 210/ 12/ 14 1024.1R 3/ 8 2/ 60/ 8 BUOY 41010 NOT AVBL ST AUGUSTINE FL 2300 67 65 170/ 5/ 6 1023.8R $$

USA.gov is the U.S. government's official web portal to all federal, state and local government web resources and services.